Latest Coastal Weather Observations for Strahan

IDT60701

Issued at 4:52 am EST Thursday 3 September 2026 (issued every 10 minutes, with the page automatically refreshed every 10 minutes)

About coastal observations | Map of coastal stations | Coastal observations for TAS | Marine services | Other Formats
Station Details ID: 097072 Name: STRAHAN AERODROME Lat: -42.16 Lon: 145.29 Height: 21.0 m
Data from the previous 72 hours. | See also: Recent months at Strahan
Date/Time
EST
Wind Sea
Height
m
Swell Vis
km
Cloud Weather Temp
°C
Press
MSL
hPa
Rain since
9am
mm
Dir  Spd
kts
Gust
kts
Height
m
Period
s
Dir
03/04:34am NW 26 38 - - - - 5 Partly cloudy - 10.5 997.5 8.2
03/04:32am NW 26 37 - - - - 10 Mostly clear - 11.3 997.4 7.8
03/04:30am NW 25 36 - - - - 10 Partly cloudy - 12.4 996.9 7.6
03/04:28am NNW 24 35 - - - - 10 Partly cloudy - 12.4 996.3 7.6
03/04:26am NNW 25 34 - - - - 10 Partly cloudy - 12.4 996.4 7.6
03/04:00am NW 27 38 - - - - 10 Partly cloudy - 12.4 996.6 7.6
03/03:43am NNW 25 39 - - - - 10 Partly cloudy - 12.2 996.6 7.6
03/03:36am NW 24 35 - - - - 9 Partly cloudy - 12.2 996.6 7.6
03/03:30am NW 25 36 - - - - 7 Partly cloudy - 12.1 996.6 7.6
03/03:09am NNW 23 33 - - - - 2 Mostly clear - 12.0 996.9 7.4
03/03:04am NNW 23 32 - - - - 2 Mostly clear - 12.1 997.1 7.0
03/03:00am NW 23 32 - - - - 1 Cloudy Rain 12.1 997.1 6.8
03/02:50am NNW 24 35 - - - - 5 Mostly clear - 12.4 997.5 4.6
03/02:49am NNW 24 35 - - - - 5 Partly cloudy - 12.4 997.5 4.6
03/02:30am NNW 24 34 - - - - 10 Partly cloudy - 12.6 998.3 4.6
03/02:10am NNW 23 36 - - - - 10 Partly cloudy - 12.5 998.8 4.6
03/02:00am NNW 23 30 - - - - 10 Partly cloudy - 12.5 999.0 4.6
03/01:52am NNW 23 30 - - - - 10 Partly cloudy - 12.4 999.2 4.6
03/01:30am NNW 23 34 - - - - 10 Partly cloudy - 12.2 999.5 4.6
03/01:29am NNW 23 34 - - - - 10 Partly cloudy - 12.2 999.5 4.6
03/01:16am NNW 22 32 - - - - 10 Partly cloudy - 12.1 999.8 4.6
03/01:10am NNW 24 32 - - - - 9 Partly cloudy - 11.9 999.8 4.6
03/01:00am NNW 23 34 - - - - 6 Partly cloudy - 12.0 999.9 4.4
03/12:58am NNW 24 34 - - - - 6 Partly cloudy - 12.0 999.9 4.4
03/12:56am NNW 25 34 - - - - 6 Partly cloudy - 12.1 999.9 4.4
03/12:30am NNW 21 30 - - - - 10 Cloudy - 12.2 1000.2 4.4
03/12:07am NNW 20 31 - - - - 10 Partly cloudy - 12.2 1000.5 4.4
03/12:00am NNW 21 29 - - - - 10 Cloudy Recent precip. 12.0 1000.7 4.4
 
Date/Time
EST
Wind Sea
Height
m
Swell Vis
km
Cloud Weather Temp
°C
Press
MSL
hPa
Rain since
9am
mm
Dir  Spd
kts
Gust
kts
Height
m
Period
s
Dir
02/11:30pm NNW 20 28 - - - - 10 Cloudy - 12.0 1001.4 4.4
02/11:00pm NNW 20 27 - - - - 10 Partly cloudy - 11.9 1001.8 4.2
02/10:57pm NNW 20 28 - - - - 10 Partly cloudy - 11.9 1001.9 4.2
02/10:30pm NNW 19 25 - - - - 4 Partly cloudy - 11.7 1002.3 4.0
02/10:23pm NNW 21 29 - - - - 5 Partly cloudy - 11.7 1002.4 3.8
02/10:20pm NNW 21 29 - - - - 8 Partly cloudy - 11.7 1002.3 3.8
02/10:10pm NNW 20 28 - - - - 5 Cloudy - 11.7 1002.5 3.8
02/10:01pm NNW 20 29 - - - - 5 Cloudy - 11.6 1002.6 3.8
02/10:00pm NNW 19 29 - - - - 6 Cloudy - 11.6 1002.6 3.8
02/09:38pm NNW 19 27 - - - - 8 Partly cloudy - 11.6 1002.9 3.8
02/09:30pm NNW 18 24 - - - - 8 Partly cloudy - 11.5 1003.0 3.8
02/09:18pm NNW 19 25 - - - - 5 Partly cloudy - 11.4 1003.2 3.6
02/09:17pm NNW 19 25 - - - - 5 Partly cloudy - 11.5 1003.3 3.6
02/09:00pm NNW 19 30 - - - - 7 Cloudy Showers 11.6 1003.4 3.6
02/08:59pm NNW 18 30 - - - - 7 Partly cloudy - 11.6 1003.4 3.6
02/08:54pm NNW 17 25 - - - - 8 Partly cloudy - 11.5 1003.3 3.6
02/08:50pm NNW 17 25 - - - - 10 Mostly clear - 11.4 1003.4 3.4
02/08:34pm NNW 17 27 - - - - 4 Mostly clear - 11.4 1003.7 3.4
02/08:33pm NNW 17 22 - - - - 5 Mostly clear - 11.3 1003.7 3.4
02/08:31pm NNW 17 22 - - - - 5 Partly cloudy - 11.4 1003.7 3.4
02/08:30pm NNW 16 22 - - - - 7 Partly cloudy - 11.3 1003.7 3.4
02/08:23pm NNW 16 22 - - - - 9 Partly cloudy - 11.3 1003.7 3.4
02/08:13pm NNW 16 26 - - - - 10 Partly cloudy - 11.2 1003.7 3.4
02/08:12pm NNW 17 26 - - - - 10 Partly cloudy - 11.2 1003.7 3.4
02/08:00pm NNW 16 23 - - - - 10 Mostly clear - 11.2 1003.8 3.4
02/07:55pm NNW 16 21 - - - - 10 Mostly clear - 11.1 1003.8 3.4
02/07:51pm NNW 17 25 - - - - 10 Partly cloudy - 11.1 1003.9 3.4
02/07:47pm NNW 18 25 - - - - 8 Mostly clear - 11.1 1004.0 3.4
02/07:35pm NNW 16 27 - - - - 3 Partly cloudy - 11.5 1004.2 3.4
02/07:33pm NW 17 24 - - - - 4 Partly cloudy - 11.6 1004.2 3.0
02/07:31pm NNW 17 26 - - - - 5 Partly cloudy - 11.6 1004.2 2.4
02/07:30pm NNW 17 26 - - - - 6 Partly cloudy - 11.6 1004.2 2.2
02/07:28pm NNW 17 26 - - - - 6 Partly cloudy - 11.5 1004.2 2.2
02/07:26pm NNW 18 26 - - - - 6 Mostly clear - 11.5 1004.2 2.2
02/07:14pm NNW 19 29 - - - - 4 Partly cloudy - 11.6 1004.1 2.2
02/07:12pm NNW 19 29 - - - - 4 Partly cloudy - 11.6 1004.1 2.2
02/07:10pm NNW 19 25 - - - - 5 Partly cloudy - 11.8 1004.1 2.2
02/07:00pm NNW 17 27 - - - - 10 Mostly clear - 11.5 1004.2 2.0
02/06:49pm NNW 19 30 - - - - 8 Partly cloudy - 11.9 1004.3 2.0
02/06:42pm NNW 19 27 - - - - 10 Partly cloudy - 12.0 1004.3 2.0
02/06:30pm NNW 18 27 - - - - 10 Partly cloudy - 12.0 1004.5 2.0
02/06:23pm NNW 19 29 - - - - 10 Partly cloudy - 11.9 1004.5 2.0
02/06:22pm NNW 20 29 - - - - 10 Partly cloudy - 11.9 1004.5 2.0
02/06:03pm NNW 19 30 - - - - 10 Partly cloudy - 11.7 1004.5 2.0
02/06:01pm NNW 18 25 - - - - 10 Mostly clear - 11.7 1004.5 2.0
02/06:00pm NNW 18 26 - - - - 10 Cloudy - 11.7 1004.5 2.0
02/05:30pm NNW 18 25 - - - - 10 Partly cloudy - 11.6 1004.7 2.0
02/05:06pm NNW 17 26 - - - - 10 Partly cloudy - 11.3 1004.8 2.0
02/05:00pm NNW 17 23 - - - - 10 Mostly clear - 11.4 1004.9 2.0
02/04:54pm NW 19 26 - - - - 10 Partly cloudy - 11.3 1004.9 2.0
02/04:43pm NNW 18 28 - - - - 10 Partly cloudy - 11.3 1005.1 2.0
02/04:30pm NNW 18 24 - - - - 10 Partly cloudy - 11.4 1005.1 2.0
02/04:15pm NNW 19 26 - - - - 10 Partly cloudy - 11.3 1005.1 2.0
02/04:07pm NNW 19 28 - - - - 10 Partly cloudy - 11.3 1005.3 2.0
02/04:04pm NNW 18 28 - - - - 10 Partly cloudy - 11.2 1005.4 2.0
02/04:01pm NNW 17 23 - - - - 10 Partly cloudy - 11.3 1005.4 2.0
02/04:00pm NNW 17 23 - - - - 10 Partly cloudy - 11.2 1005.5 2.0
02/03:59pm NW 17 24 - - - - 10 Partly cloudy - 11.2 1005.5 2.0
02/03:37pm NW 20 30 - - - - 4 Partly cloudy - 11.3 1005.6 1.6
02/03:36pm NW 19 25 - - - - 5 Mostly clear - 11.5 1005.7 1.6
02/03:34pm NNW 19 23 - - - - 7 Mostly clear - 11.5 1005.6 1.6
02/03:30pm NNW 19 25 - - - - 10 Mostly clear - 11.6 1005.6 1.6
02/03:25pm NW 19 25 - - - - 10 Partly cloudy - 11.5 1005.6 1.6
02/03:23pm NW 18 25 - - - - 9 Partly cloudy - 11.4 1005.7 1.6
02/03:13pm NW 19 27 - - - - 4 Mostly clear - 11.5 1005.9 1.6
02/03:00pm NW 23 33 - - - - 3 Cloudy Showers 11.5 1006.0 1.4
02/02:53pm NW 21 33 - - - - 5 Partly cloudy - 11.7 1005.7 1.2
02/02:46pm NNW 19 29 - - - - 10 Partly cloudy - 12.3 1005.6 1.2
02/02:42pm NW 21 29 - - - - 10 Partly cloudy - 12.4 1005.6 1.2
02/02:31pm NNW 21 31 - - - - 10 Partly cloudy - 12.1 1005.7 1.2
02/02:30pm NNW 21 27 - - - - 10 Partly cloudy - 12.2 1005.6 1.2
02/02:06pm NNW 20 27 - - - - 10 Partly cloudy - 12.3 1005.9 1.2
02/02:05pm NNW 21 29 - - - - 10 Partly cloudy - 12.2 1006.0 1.2
02/02:00pm NNW 21 30 - - - - 10 Mostly clear - 12.3 1006.0 1.2
02/01:54pm NW 20 30 - - - - 5 Partly cloudy - 11.9 1006.1 1.2
02/01:42pm NNW 20 30 - - - - 3 Partly cloudy - 11.6 1006.2 1.0
02/01:36pm NNW 19 28 - - - - 5 Partly cloudy - 11.7 1006.3 1.0
02/01:30pm NNW 18 23 - - - - 9 Partly cloudy - 12.0 1006.4 1.0
02/01:29pm NNW 18 23 - - - - 9 Partly cloudy - 12.2 1006.4 1.0
02/01:10pm NNW 18 30 - - - - 10 Partly cloudy - 11.9 1006.6 1.0
02/01:00pm NNW 18 24 - - - - 10 Partly cloudy - 12.0 1006.7 1.0
02/12:53pm NNW 18 24 - - - - 10 Partly cloudy - 11.7 1006.8 1.0
02/12:42pm NNW 22 32 - - - - 5 Partly cloudy - 11.7 1007.0 1.0
02/12:30pm NNW 21 30 - - - - 4 Partly cloudy - 11.5 1007.1 0.8
02/12:27pm NNW 19 27 - - - - 5 Partly cloudy - 11.6 1007.1 0.8
02/12:00pm NNW 18 25 - - - - 10 Cloudy Rain 11.5 1007.7 0.8
02/11:54am NNW 17 25 - - - - 10 Partly cloudy - 11.7 1007.7 0.8
02/11:34am NW 17 23 - - - - 5 Partly cloudy - 11.5 1007.8 0.4
02/11:30am NNW 16 23 - - - - 10 Partly cloudy - 11.6 1007.8 0.4
02/11:24am NNW 17 24 - - - - 10 Mostly clear - 12.2 1007.7 0.4
02/11:13am NW 17 27 - - - - 10 Mostly clear - 12.1 1007.9 0.4
02/11:00am NW 18 25 - - - - 10 Partly cloudy - 12.2 1007.9 0.4
02/10:41am NNW 13 19 - - - - 10 Mostly clear - 11.4 1008.0 0.4
02/10:38am NNW 12 19 - - - - 10 Mostly clear - 11.3 1008.0 0.4
02/10:30am NW 15 25 - - - - 7 Mostly clear - 11.0 1008.2 0.4
02/10:28am NW 17 25 - - - - 5 Mostly clear - 10.8 1008.2 0.4
02/10:21am NW 17 25 - - - - 5 Mostly clear - 10.8 1008.4 0.4
02/10:17am NW 15 25 - - - - 10 Mostly clear - 11.1 1008.4 0.4
02/10:00am NW 13 19 - - - - 10 Mostly clear - 11.0 1008.4 0.4
02/09:56am NW 14 19 - - - - 10 Mostly clear - 11.0 1008.5 0.4
02/09:47am NW 18 26 - - - - 7 Mostly clear - 10.5 1008.7 0.4
02/09:38am NW 19 26 - - - - 2 Mostly clear - 10.6 1008.7 0.4
02/09:30am NW 18 29 - - - - 5 Mostly clear - 10.9 1008.7 0.2
02/09:28am NW 17 29 - - - - 10 Mostly clear - 11.4 1008.6 0.0
02/09:00am NW 14 18 - - - - 10 Cloudy Rain 11.2 1008.5 11.6
02/08:34am NW 11 16 - - - - 10 Mostly clear - 10.0 1008.7 11.6
02/08:30am NW 13 21 - - - - 10 Mostly clear - 9.8 1008.7 11.6
02/08:22am NW 19 26 - - - - 4 Mostly clear - 9.4 1008.8 11.6
02/08:11am WNW 15 26 - - - - 5 Partly cloudy - 10.2 1008.8 11.4
02/08:00am WNW 16 21 - - - - 5 Mostly clear - 10.4 1008.7 11.4
02/07:58am WNW 17 25 - - - - 5 Mostly clear - 10.5 1008.6 11.4
02/07:30am NW 15 20 - - - - 10 Mostly clear - 11.4 1007.9 11.0
02/07:28am NW 15 20 - - - - 10 Mostly clear - 11.4 1007.9 11.0
02/07:09am NW 15 27 - - - - 10 Mostly clear - 11.4 1007.8 11.0
02/07:00am NW 15 20 - - - - 10 Partly cloudy - 11.3 1007.8 11.0
02/06:38am NW 13 19 - - - - 10 Mostly clear - 10.8 1007.8 11.0
02/06:30am WNW 14 19 - - - - 10 Mostly clear - 10.7 1007.7 11.0
02/06:27am WNW 15 25 - - - - 10 Mostly clear - 10.5 1007.8 11.0
02/06:25am WNW 16 25 - - - - 10 Mostly clear - 10.4 1007.7 11.0
02/06:14am NW 15 25 - - - - 10 Partly cloudy - 10.6 1007.8 11.0
02/06:00am WNW 15 23 - - - - 10 Cloudy Showers 10.4 1007.7 11.0
02/05:30am NW 12 17 - - - - 10 Cloudy - 10.7 1007.6 11.0
02/05:00am NW 13 18 - - - - 10 Mostly clear - 10.6 1007.6 11.0
02/04:30am NW 13 20 - - - - 10 Mostly clear - 10.8 1007.5 11.0
02/04:00am WNW 13 20 - - - - 10 Partly cloudy - 10.5 1007.5 11.0
02/03:30am WNW 15 21 - - - - 10 Mostly clear - 10.6 1007.3 11.0
02/03:00am NW 12 16 - - - - 10 Mostly cloudy - 10.2 1007.4 11.0
02/02:30am WNW 10 14 - - - - 10 Partly cloudy - 10.5 1007.6 11.0
02/02:00am WNW 10 14 - - - - 10 Partly cloudy - 10.1 1007.8 11.0
02/01:30am WNW 9 14 - - - - 10 Mostly clear - 9.5 1007.7 11.0
02/01:00am WNW 8 11 - - - - 10 Partly cloudy - 9.5 1007.6 11.0
02/12:30am WNW 10 17 - - - - 10 Mostly clear - 9.9 1007.6 11.0
02/12:00am WNW 10 14 - - - - 10 - - 9.6 1007.8 11.0
 
Date/Time
EST
Wind Sea
Height
m
Swell Vis
km
Cloud Weather Temp
°C
Press
MSL
hPa
Rain since
9am
mm
Dir  Spd
kts
Gust
kts
Height
m
Period
s
Dir
01/11:30pm WNW 11 15 - - - - 10 Mostly clear - 9.6 1007.7 11.0
01/11:00pm W 10 16 - - - - 10 Partly cloudy - 9.8 1007.9 11.0
01/10:30pm W 9 12 - - - - 10 Mostly clear - 9.3 1007.7 11.0
01/10:00pm W 10 15 - - - - 10 Partly cloudy - 10.2 1007.7 11.0
01/09:30pm W 8 11 - - - - 10 Mostly clear - 10.0 1007.5 11.0
01/09:03pm WSW 7 9 - - - - 10 Mostly clear - 10.3 1007.4 11.0
01/09:00pm WSW 8 13 - - - - 10 Cloudy Rain 10.3 1007.3 11.0
01/08:45pm WSW 11 16 - - - - 10 Mostly clear - 10.5 1007.0 11.0
01/08:30pm WSW 12 17 - - - - 4 Partly cloudy - 10.9 1006.9 11.0
01/08:26pm WSW 11 16 - - - - 5 Mostly clear - 11.2 1006.8 11.0
01/08:00pm WSW 12 19 - - - - 10 Partly cloudy - 11.6 1006.2 10.8
01/07:46pm W 11 15 - - - - 10 Partly cloudy - 11.6 1006.0 10.8
01/07:37pm WSW 13 21 - - - - 10 Partly cloudy - 11.6 1005.6 10.8
01/07:31pm W 14 21 - - - - 10 Partly cloudy - 11.5 1005.5 10.8
01/07:30pm WSW 14 21 - - - - 10 Partly cloudy - 11.6 1005.4 10.8
01/07:25pm W 16 22 - - - - 10 Partly cloudy - 11.7 1005.3 10.8
01/07:16pm NW 22 36 - - - - 3 Partly cloudy - 12.3 1004.9 10.8
01/07:11pm NW 21 32 - - - - 3 Cloudy - 13.2 1004.4 10.8
01/07:07pm NW 20 27 - - - - 3 Cloudy - 13.2 1004.2 10.2
01/07:00pm NW 19 26 - - - - 3 Partly cloudy - 13.1 1004.1 10.0
01/06:48pm NW 20 30 - - - - 2 Cloudy - 13.1 1004.1 9.4
01/06:38pm NW 19 25 - - - - 3 Cloudy - 13.1 1004.0 7.6
01/06:30pm NNW 20 27 - - - - 4 Cloudy - 13.1 1003.9 7.4
01/06:18pm NNW 19 30 - - - - 2 Cloudy - 13.0 1003.8 7.2
01/06:14pm NNW 19 28 - - - - 3 Partly cloudy - 13.0 1003.8 7.2
01/06:00pm NNW 21 31 - - - - 2 Cloudy Showers 12.9 1003.7 7.0
01/05:53pm NNW 21 30 - - - - 5 Cloudy - 12.9 1003.8 6.6
01/05:52pm NNW 20 30 - - - - 6 Cloudy - 12.9 1003.7 6.6
01/05:37pm NNW 20 29 - - - - 8 Cloudy - 12.9 1003.8 6.6
01/05:31pm NNW 21 29 - - - - 10 Partly cloudy - 12.9 1003.8 6.4
01/05:30pm NNW 21 29 - - - - 10 Partly cloudy - 12.9 1003.8 6.4
01/05:18pm NNW 21 31 - - - - 8 Partly cloudy - 12.8 1003.7 6.4
01/05:15pm NNW 21 29 - - - - 8 Partly cloudy - 12.7 1003.7 6.4
01/05:14pm NNW 21 29 - - - - 8 Partly cloudy - 12.7 1003.7 6.4
01/05:03pm NNW 20 34 - - - - 8 Partly cloudy - 12.6 1003.6 6.4
01/05:00pm NNW 20 34 - - - - 7 Partly cloudy - 12.6 1003.7 6.4
01/04:45pm NNW 21 31 - - - - 5 Partly cloudy - 12.5 1003.9 5.8
01/04:39pm NNW 23 31 - - - - 4 Partly cloudy - 12.5 1004.2 5.6
01/04:30pm NNW 22 31 - - - - 5 Partly cloudy - 12.6 1004.4 5.0
01/04:00pm NNW 19 27 - - - - 5 Cloudy - 12.4 1004.6 3.4
01/03:48pm N 19 28 - - - - 5 Cloudy - 12.4 1004.7 2.8
01/03:42pm N 17 24 - - - - 7 Mostly clear - 12.4 1004.8 2.6
01/03:31pm NNW 19 29 - - - - 8 Mostly clear - 12.5 1004.9 2.0
01/03:30pm NNW 20 29 - - - - 8 Mostly clear - 12.5 1004.9 2.0
01/03:00pm NNW 18 25 - - - - 10 Mostly cloudy Showers 12.6 1005.2 1.0
01/02:46pm NNW 18 27 - - - - 8 Cloudy - 12.7 1005.3 1.0
01/02:30pm NNW 18 31 - - - - 10 Cloudy - 13.1 1005.5 0.2
01/02:09pm NNW 22 30 - - - - 10 Partly cloudy - 14.3 1005.6 0.0
01/02:00pm NNW 17 37 - - - - 10 Partly cloudy - 15.3 1005.5 0.0
01/01:59pm NNW 16 37 - - - - 10 Partly cloudy - 15.5 1005.6 0.0
01/01:30pm N 14 20 - - - - 10 Partly cloudy - 15.3 1006.0 0.0
01/01:03pm N 17 26 - - - - 10 Partly cloudy - 15.2 1007.2 0.0
01/01:00pm N 17 26 - - - - 10 Partly cloudy - 15.1 1007.4 0.0
01/12:44pm NNW 18 28 - - - - 10 Mostly clear - 15.8 1007.8 0.0
01/12:35pm NNW 16 24 - - - - 10 Partly cloudy - 15.5 1008.1 0.0
01/12:30pm NNW 15 24 - - - - 10 Partly cloudy - 15.4 1008.3 0.0
01/12:17pm NNW 18 28 - - - - 10 Partly cloudy - 15.8 1008.6 0.0
01/12:12pm N 20 27 - - - - 10 Partly cloudy - 16.1 1008.6 0.0
01/12:00pm N 17 27 - - - - 10 Cloudy - 15.9 1009.1 0.0
01/11:45am NNW 20 28 - - - - 10 Cloudy - 16.3 1009.1 0.0
01/11:30am NNW 21 31 - - - - 10 Partly cloudy - 16.4 1009.5 0.0
01/11:26am NNW 20 31 - - - - 10 Partly cloudy - 16.5 1009.6 0.0
01/11:00am N 19 27 - - - - 10 - - 16.0 1010.1 0.0
01/10:30am N 18 24 - - - - 10 - - 15.6 1011.0 0.0
01/10:05am N 17 23 - - - - 10 - - 15.6 1011.4 0.0
01/10:00am N 17 23 - - - - 10 - - 15.6 1011.3 0.0
01/09:46am N 16 29 - - - - 10 - - 15.2 1011.8 0.0
01/09:30am N 16 22 - - - - 10 - - 14.4 1012.2 0.0
01/09:00am N 16 21 - - - - 10 - - 13.5 1012.4 0.2
01/08:30am N 13 20 - - - - 10 - - 13.2 1012.7 0.2
01/08:00am N 14 20 - - - - 10 - - 12.6 1013.0 0.2
01/07:30am N 12 17 - - - - 10 - - 10.9 1013.7 0.2
01/07:00am N 10 13 - - - - 10 - - 9.2 1013.9 0.2
01/06:30am N 10 14 - - - - 10 - - 9.2 1014.1 0.2
01/06:00am N 10 14 - - - - 10 - - 8.5 1014.6 0.2
01/05:30am NNE 11 14 - - - - 10 - - 8.3 1015.2 0.2
01/05:00am N 10 14 - - - - 10 - - 7.1 1015.9 0.2
01/04:30am N 10 12 - - - - 10 - - 6.4 1016.2 0.2
01/04:00am NNE 9 12 - - - - 10 - - 6.1 1017.1 0.2
01/03:30am NNE 7 9 - - - - 10 - - 5.1 1017.9 0.2
01/03:00am NNE 7 8 - - - - 10 - - 5.0 1018.6 0.2
01/02:30am NNE 7 9 - - - - 10 - - 5.1 1019.2 0.2
01/02:00am NNE 5 8 - - - - 10 Mostly clear - 5.4 1020.2 0.2
01/01:30am NNE 7 8 - - - - 10 - - 5.7 1020.7 0.2
01/01:00am NNE 7 9 - - - - 10 Mostly clear - 6.3 1021.1 0.2
01/12:57am N 7 9 - - - - 10 Mostly clear - 6.3 1021.1 0.2
01/12:30am NE 6 8 - - - - 10 Cloudy - 6.6 1021.4 0.2
01/12:11am NNE 6 8 - - - - 10 Partly cloudy - 6.7 1021.9 0.2
01/12:03am NNE 6 9 - - - - 10 Partly cloudy - 6.6 1021.9 0.2
01/12:00am NNE 7 9 - - - - 10 Partly cloudy - 6.7 1021.9 0.2
 
Date/Time
EST
Wind Sea
Height
m
Swell Vis
km
Cloud Weather Temp
°C
Press
MSL
hPa
Rain since
9am
mm
Dir  Spd
kts
Gust
kts
Height
m
Period
s
Dir
31/11:30pm N 8 13 - - - - 10 Partly cloudy - 7.9 1022.4 0.2
31/11:18pm NNE 7 10 - - - - 10 Cloudy - 8.8 1022.6 0.2
31/11:00pm NNE 7 10 - - - - 10 Cloudy - 8.2 1023.1 0.2
31/10:30pm N 7 10 - - - - 10 Cloudy - 8.7 1023.7 0.2
31/10:00pm N 9 11 - - - - 10 Cloudy - 8.7 1024.3 0.2
31/09:30pm N 8 11 - - - - 10 Cloudy - 8.6 1024.4 0.2
31/09:00pm N 7 9 - - - - 10 Cloudy - 8.8 1024.7 0.2
31/08:30pm N 8 11 - - - - 10 Partly cloudy - 8.4 1024.9 0.2
31/08:00pm N 8 13 - - - - 10 Mostly clear - 9.1 1025.2 0.2
31/07:30pm NNW 9 11 - - - - 10 Mostly clear - 9.4 1025.3 0.2
31/07:00pm N 8 12 - - - - 10 Cloudy - 10.2 1025.4 0.2
31/06:30pm NNW 8 10 - - - - 10 Partly cloudy - 10.0 1025.4 0.2
31/06:00pm N 6 9 - - - - 10 Mostly cloudy - 10.7 1025.6 0.2
31/05:30pm NNW 10 15 - - - - 10 Cloudy - 10.8 1025.9 0.2
31/05:00pm NNW 9 13 - - - - 10 Cloudy - 11.4 1026.1 0.2
31/04:30pm NW 8 12 - - - - 10 Partly cloudy - 10.8 1026.4 0.2
31/04:00pm NW 10 15 - - - - 10 Cloudy - 11.9 1026.5 0.2
31/03:30pm NW 13 18 - - - - 10 Partly cloudy - 12.4 1026.7 0.2
31/03:00pm NW 12 15 - - - - 10 Mostly cloudy - 13.1 1026.9 0.2
31/02:30pm NW 13 19 - - - - 10 Cloudy - 13.1 1027.0 0.2
31/02:00pm NW 15 20 - - - - 10 Cloudy - 12.7 1027.3 0.2
31/01:30pm WNW 13 17 - - - - 10 Cloudy - 12.9 1027.8 0.2
31/01:00pm NW 13 18 - - - - 10 Cloudy - 13.1 1028.0 0.2
31/12:30pm NW 12 15 - - - - 10 Mostly clear - 12.5 1028.4 0.2
31/12:00pm NW 12 17 - - - - 10 Cloudy - 12.9 1028.8 0.2
31/11:30am NNW 12 15 - - - - 10 Partly cloudy - 12.1 1029.1 0.2
31/11:00am NNW 10 14 - - - - 10 Partly cloudy - 11.7 1029.5 0.2
31/10:51am NNW 9 14 - - - - 10 Mostly clear - 11.8 1029.6 0.2
31/10:48am NNW 9 14 - - - - 10 Mostly clear - 12.2 1029.6 0.2
31/10:30am NNW 12 16 - - - - 2 Partly cloudy - 11.0 1029.9 0.2
31/10:00am NNW 11 14 - - - - 5 Partly cloudy - 11.2 1029.9 0.0
31/09:55am NNW 10 13 - - - - 10 Partly cloudy - 11.2 1029.9 0.0
31/09:30am N 8 11 - - - - 10 Partly cloudy - 11.4 1029.9 0.0
31/09:00am N 6 8 - - - - 10 Cloudy - 11.3 1029.9 0.6
31/08:30am N 7 8 - - - - 10 Mostly clear - 10.4 1029.8 0.6
31/08:00am N 6 8 - - - - 10 Mostly clear - 10.1 1029.8 0.6
31/07:30am N 7 8 - - - - 10 Cloudy - 9.6 1029.6 0.6
31/07:00am N 6 8 - - - - 10 Mostly clear - 9.6 1029.5 0.6
31/06:30am NNE 7 9 - - - - 10 Mostly clear - 9.5 1029.2 0.6
31/06:00am NNE 6 8 - - - - 10 Cloudy - 9.4 1029.1 0.6
31/05:30am NNW 4 6 - - - - 10 Partly cloudy - 9.2 1029.2 0.6
31/05:00am NNE 6 8 - - - - 10 Cloudy - 9.4 1029.2 0.6

Other formats

Comma delimited format used in spreadsheet applications
http://www.bom.gov.au/fwo/IDT60701/IDT60701.94956.axf

JavaScript Object Notation format (JSON) in row-major order
http://www.bom.gov.au/fwo/IDT60701/IDT60701.94956.json

Data quality

Most of these data are generated automatically and are frequently updated. Quality checks on data are not normally performed. It is possible for incorrect values to appear. Refer to information at About Latest Weather Observations and please check the disclaimer before using these data.